Terug naar catalogus

DELTA 1 DEB

ActiefSSO
NORAD 10642·DEBRIS·🇺🇸 United States

Gelanceerd Jul 29, 1976 vanaf Vandenberg Space Force Base

Loading…

Volgende Passages (komende 24 uur)

TLE

VersSource: Space-Track

Epoch: Sep 13, 2026, 19:16 UTC

1 10642U 76077C   26256.80289691 -.00000008  00000-0  33340-3 0  9999
2 10642 102.2554 205.3193 0102045 233.4921 183.6659 12.21840239235856

Volg DELTA 1 DEB in realtime met AllMySat

Download on the App Store